FFT1618 KDEN-KAUS

Flight info

Callsign FFT1618
Flight time N/A
Altitude 37000
Route SLEEK2 SLEEK PNH J17 ABI DILLO LAIKS4
Aircraft A320/M-SDE3FGHIRWY/LB1

Departure

Time 2026-05-06 02:41
Airport Denver International Airport (KDEN)

Arrival

Time N/A
Airport Austin Bergstrom International Airport (KAUS)
Time Latitude Longitude Altitude Speed Heading
2026-05-06 02:03 39.85366 -104.66778 5365 ft 0 kts 360°
2026-05-06 02:27 39.85360 -104.66778 5380 ft 2 kts 360°
2026-05-06 02:28 39.85341 -104.66778 5381 ft 3 kts 360°
2026-05-06 02:28 39.85320 -104.66778 5382 ft 3 kts 360°
2026-05-06 02:28 39.85300 -104.66778 5383 ft 3 kts 360°
2026-05-06 02:28 39.85281 -104.66778 5382 ft 2 kts 360°
2026-05-06 02:29 39.85276 -104.66778 5380 ft 0 kts 360°
2026-05-06 02:33 39.85277 -104.66778 5380 ft 1 kts 358°
2026-05-06 02:34 39.85234 -104.67011 5383 ft 15 kts 268°
2026-05-06 02:34 39.85233 -104.67205 5383 ft 25 kts 267°
2026-05-06 02:34 39.85236 -104.67434 5383 ft 25 kts 270°
2026-05-06 02:34 39.85237 -104.67664 5383 ft 26 kts 271°
2026-05-06 02:35 39.85239 -104.67893 5383 ft 26 kts 271°
2026-05-06 02:35 39.85242 -104.68103 5383 ft 20 kts 270°
2026-05-06 02:35 39.85215 -104.68286 5376 ft 22 kts 255°
2026-05-06 02:35 39.85207 -104.68491 5378 ft 23 kts 269°
2026-05-06 02:36 39.85203 -104.68722 5369 ft 28 kts 268°
2026-05-06 02:36 39.85198 -104.68993 5356 ft 32 kts 268°
2026-05-06 02:36 39.85198 -104.69284 5343 ft 31 kts 272°
2026-05-06 02:36 39.85202 -104.69515 5340 ft 14 kts 270°
2026-05-06 02:37 39.85202 -104.69526 5339 ft 0 kts 271°
2026-05-06 02:37 39.85203 -104.69568 5336 ft 13 kts 271°
2026-05-06 02:38 39.85265 -104.69659 5338 ft 15 kts
2026-05-06 02:38 39.85296 -104.69657 5338 ft 0 kts
2026-05-06 02:40 39.85321 -104.69656 5337 ft 16 kts
2026-05-06 02:40 39.85641 -104.69654 5338 ft 78 kts
2026-05-06 02:40 39.86389 -104.69646 5336 ft 135 kts
2026-05-06 02:41 39.87486 -104.69636 5415 ft 172 kts
2026-05-06 02:41 39.88693 -104.69655 6069 ft 175 kts
2026-05-06 02:41 39.89903 -104.69564 6848 ft 174 kts 22°
2026-05-06 02:41 39.90861 -104.68671 7185 ft 180 kts 60°
2026-05-06 02:42 39.91170 -104.67045 7333 ft 195 kts 98°
2026-05-06 02:42 39.90789 -104.65255 7469 ft 217 kts 110°
2026-05-06 02:42 39.90197 -104.63320 7629 ft 241 kts 112°
2026-05-06 02:42 39.89525 -104.61204 7913 ft 263 kts 112°
2026-05-06 02:43 39.88817 -104.58962 8485 ft 272 kts 112°
2026-05-06 02:43 39.88105 -104.56659 9234 ft 276 kts 112°
2026-05-06 02:43 39.87411 -104.54343 9918 ft 280 kts 112°
2026-05-06 02:43 39.86697 -104.51915 10243 ft 298 kts 112°
2026-05-06 02:44 39.85932 -104.49257 10384 ft 322 kts 112°
2026-05-06 02:44 39.85136 -104.46494 10733 ft 335 kts 112°
2026-05-06 02:44 39.84302 -104.43625 11257 ft 344 kts 112°
2026-05-06 02:44 39.83445 -104.40682 11784 ft 351 kts 112°
2026-05-06 02:45 39.82574 -104.37674 12320 ft 359 kts 112°
2026-05-06 02:45 39.81694 -104.34609 12854 ft 366 kts 112°
2026-05-06 02:45 39.80800 -104.31469 13390 ft 373 kts 112°
2026-05-06 02:45 39.79782 -104.28327 13896 ft 378 kts 123°
2026-05-06 02:46 39.78146 -104.25680 14363 ft 377 kts 143°
2026-05-06 02:46 39.75968 -104.23851 14876 ft 371 kts 162°
2026-05-06 02:46 39.73502 -104.23023 15394 ft 364 kts 181°
2026-05-06 02:46 39.71005 -104.23201 15942 ft 358 kts 195°
2026-05-06 02:47 39.68546 -104.23768 16509 ft 360 kts 196°
2026-05-06 02:47 39.66065 -104.24352 17064 ft 363 kts 196°
2026-05-06 02:47 39.63572 -104.24940 17613 ft 366 kts 196°
2026-05-06 02:47 39.61055 -104.25530 18178 ft 369 kts 197°
2026-05-06 02:48 39.58518 -104.26121 18649 ft 372 kts 196°
2026-05-06 02:48 39.55962 -104.26712 19131 ft 374 kts 196°
2026-05-06 02:48 39.53396 -104.27302 19622 ft 377 kts 196°
2026-05-06 02:48 39.50804 -104.27897 20115 ft 379 kts 196°
2026-05-06 02:49 39.48192 -104.28496 20596 ft 382 kts 195°
2026-05-06 02:49 39.45569 -104.29099 21081 ft 384 kts 195°
2026-05-06 02:49 39.42921 -104.29709 21564 ft 387 kts 195°
2026-05-06 02:49 39.40263 -104.30318 22022 ft 390 kts 195°
2026-05-06 02:50 39.37584 -104.30929 22488 ft 392 kts 195°
2026-05-06 02:50 39.34885 -104.31542 22915 ft 395 kts 195°
2026-05-06 02:50 39.32165 -104.32159 23314 ft 398 kts 195°
2026-05-06 02:50 39.29437 -104.32778 23698 ft 401 kts 195°
2026-05-06 02:51 39.26674 -104.33407 24057 ft 403 kts 195°
2026-05-06 02:51 39.23904 -104.34038 24420 ft 405 kts 195°
2026-05-06 02:51 39.21133 -104.34670 24778 ft 406 kts 195°
2026-05-06 02:51 39.18342 -104.35307 25134 ft 408 kts 195°
2026-05-06 02:52 39.15514 -104.35780 25473 ft 414 kts 187°
2026-05-06 02:52 39.12613 -104.35602 25789 ft 422 kts 177°
2026-05-06 02:52 39.09761 -104.34795 26164 ft 427 kts 172°
2026-05-06 02:52 39.06843 -104.33848 26515 ft 428 kts 172°
2026-05-06 02:53 39.03955 -104.32916 26844 ft 429 kts 172°
2026-05-06 02:53 39.01045 -104.31988 27165 ft 431 kts 172°
2026-05-06 02:53 38.98128 -104.31064 27481 ft 432 kts 172°
2026-05-06 02:53 38.95206 -104.30138 27791 ft 434 kts 172°
2026-05-06 02:54 38.92266 -104.29204 28099 ft 435 kts 172°
2026-05-06 02:54 38.89326 -104.28268 28391 ft 436 kts 173°
2026-05-06 02:54 38.86379 -104.27329 28697 ft 437 kts 173°
2026-05-06 02:54 38.83424 -104.26388 28978 ft 438 kts 173°
2026-05-06 02:55 38.80458 -104.25444 29237 ft 440 kts 173°
2026-05-06 02:55 38.77483 -104.24500 29500 ft 441 kts 174°
2026-05-06 02:55 38.74493 -104.23553 29748 ft 443 kts 174°
2026-05-06 02:55 38.71502 -104.22608 29988 ft 444 kts 174°
2026-05-06 02:56 38.68500 -104.21660 30181 ft 445 kts 174°
2026-05-06 02:56 38.65519 -104.20716 30323 ft 448 kts 174°
2026-05-06 02:56 38.62457 -104.19745 30555 ft 448 kts 175°
2026-05-06 02:56 38.59429 -104.18786 30852 ft 446 kts 175°
2026-05-06 02:57 38.56460 -104.17845 31146 ft 445 kts 175°
2026-05-06 02:57 38.53461 -104.16825 31450 ft 448 kts 171°
2026-05-06 02:57 38.50556 -104.15268 31744 ft 459 kts 161°
2026-05-06 02:57 38.47831 -104.13070 31979 ft 471 kts 153°
2026-05-06 02:58 38.45293 -104.10374 32283 ft 474 kts 150°
2026-05-06 02:58 38.42782 -104.07654 32557 ft 473 kts 151°
2026-05-06 02:58 38.40268 -104.04942 32803 ft 473 kts 151°
2026-05-06 02:58 38.37749 -104.02234 33054 ft 472 kts 152°
2026-05-06 02:59 38.35240 -103.99545 33300 ft 472 kts 152°
2026-05-06 02:59 38.32727 -103.96855 33553 ft 471 kts 152°
2026-05-06 02:59 38.30220 -103.94171 33797 ft 471 kts 152°
2026-05-06 02:59 38.27719 -103.91490 33979 ft 471 kts 154°
2026-05-06 03:00 38.25205 -103.88798 34137 ft 472 kts 154°
2026-05-06 03:00 38.22690 -103.86108 34329 ft 472 kts 154°
2026-05-06 03:00 38.20171 -103.83416 34480 ft 473 kts 154°
2026-05-06 03:00 38.17652 -103.80731 34649 ft 473 kts 154°
2026-05-06 03:01 38.15128 -103.78043 34843 ft 473 kts 154°
2026-05-06 03:01 38.12612 -103.75361 35034 ft 473 kts 154°
2026-05-06 03:01 38.10098 -103.72679 35226 ft 472 kts 154°
2026-05-06 03:01 38.07579 -103.70002 35358 ft 471 kts 155°
2026-05-06 03:02 38.04956 -103.67638 35487 ft 454 kts 164°
2026-05-06 03:02 38.02234 -103.65645 35608 ft 452 kts 165°
2026-05-06 03:02 37.99501 -103.63655 35734 ft 453 kts 165°
2026-05-06 03:03 37.94037 -103.59668 35953 ft 453 kts 164°
2026-05-06 03:03 37.91314 -103.57673 36106 ft 452 kts 164°
2026-05-06 03:03 37.88591 -103.55681 36252 ft 452 kts 164°
2026-05-06 03:03 37.85869 -103.53694 36370 ft 451 kts 164°
2026-05-06 03:04 37.83146 -103.51708 36542 ft 450 kts 164°
2026-05-06 03:04 37.80434 -103.49730 36687 ft 450 kts 164°
2026-05-06 03:04 37.77725 -103.47756 36848 ft 449 kts 165°
2026-05-06 03:05 37.72314 -103.43822 36928 ft 448 kts 165°
2026-05-06 03:05 37.66942 -103.39933 36910 ft 448 kts 165°
2026-05-06 03:06 37.61543 -103.36023 36916 ft 448 kts 165°
2026-05-06 03:06 37.56142 -103.32122 36915 ft 447 kts 165°
2026-05-06 03:07 37.50741 -103.28238 36920 ft 447 kts 165°
2026-05-06 03:07 37.45342 -103.24354 36918 ft 447 kts 165°
2026-05-06 03:08 37.39952 -103.20456 36916 ft 446 kts 165°
2026-05-06 03:08 37.34586 -103.16594 36927 ft 444 kts 166°
2026-05-06 03:09 37.29229 -103.12768 36936 ft 442 kts 166°
2026-05-06 03:09 37.25653 -103.10214 36926 ft 442 kts 166°